Location: Lone Pine Community Mobile Home Park
(42.7367°N, 73.8567°W)
Time: 10:20:12
(UTC+00:00)

Cosmos 1745 Rocket - Pass Details

Date: 29 October 2020
Orbit: 953 x 997 km, 83.0° (Epoch: 23 November)

Event Time Altitude Azimuth Distance (km) Brightness Sun altitude
Rises 23:22:09 0° 352° (N) 3,696 7.1 -17.2°
Reaches altitude 10° 23:24:39 10° 353° (N) 2,750 6.4 -17.7°
Maximum altitude 23:31:00 86° 83° (E) 999 4.0 -18.8°
Drops below altitude 10° 23:37:20 10° 173° (S) 2,753 6.3 -20.0°
Sets 23:39:51 0° 173° (S) 3,700 7.0 -20.4°
